Portage Invitational 2011 vs Portage Invitational 2009

Aggregate Data Points
Difference This Meet That Meet
Overall Athletes -2755 1014 3769
Overall Average -1:08.21 20:11.82 21:20.03
1st-10th Place +5.87 15:46.44 15:40.57
1st-25th Place +12.18 16:02.91 15:50.74
1st-50th Place +16.13 16:19.24 16:03.11
1st-100th Place +20.79 16:38.66 16:17.87
Common Athletes -- -- 295
Ran Faster 91 193 102
Ran Season Best -- 295 295
Average Time -18.60 19:30.48 19:49.08
Median Time -29.20 18:54.60 19:23.80
Middle 80% Times -21.95 19:17.47 19:39.42
Top 10% Times -38.44 16:23.78 17:02.22
Top 25% Times -35.62 16:53.93 17:29.55
Top 50% Times -35.06 17:33.20 18:08.26
Bottom 50% Times -2.01 21:19.85 21:21.86
Bottom 25% Times +17.76 22:59.04 22:41.28
Bottom 10% Times +28.74 24:26.22 23:57.48
Average Difference -18.60 -- --
Median Difference -2:14.50 -- --
Middle 80% Difference -23.58 -- --
Top 10% Difference -27.19 -- --
Top 50% Difference -30.62 -- --
Top 25% Difference -25.90 -- --
Top 50% Difference -30.62 -- --
Bottom 50% Difference -7.36 -- --
Bottom 25% Difference +17.83 -- --
Bottom 10% Difference +30.16 -- --

Performances of Common Athletes
Athlete Team Difference This Meet That Meet
Bryce Bradley Chelsea -1:23.20 15:30.40 16:53.60
Drew Woznick Rockford -1:58.70 15:38.30 17:37.00
Nick Renberg Saline -1:10.20 15:42.00 16:52.20
Jacob Towne Grand Rapids Forest Hills Northern -57.30 15:58.50 16:55.80
Jeff Bajema Grand Rapids Kenowa Hills -31.70 16:02.30 16:34.00
Nick Costello Brighton -2:27.90 16:06.80 18:34.70
Ryan Duff Grand Haven -31.10 16:08.40 16:39.50
Nick Wharry Ionia +1:23.20 17:33.70 16:10.50
William Trice Grand Rapids Forest Hills Northern -47.90 16:16.30 17:04.20
Joey Fici Vicksburg -1:30.90 16:18.30 17:49.20
Russ Werra Grand Rapids Kenowa Hills -24.60 16:18.90 16:43.50
Connor Montgomery Ionia -5.70 16:19.90 16:25.60
Tim Jurick Brighton -18.40 16:20.10 16:38.50
Michael Cox Pinckney -44.30 16:20.90 17:05.20
Brice Brown Ionia -1:33.50 16:24.30 17:57.80
Mowgli Crosby Grand Rapids Forest Hills Eastern -2:07.70 16:25.90 18:33.60
Thomas Meeker Mattawan -57.90 16:27.30 17:25.20
Ryan Leahy St. Joseph -1:19.40 16:28.40 17:47.80
Mason Przybysz Caledonia -1:09.80 16:30.40 17:40.20
Adam Horace Temperance-Bedford -36.20 16:32.00 17:08.20
Danny Hughes Vicksburg +1:13.70 17:51.70 16:38.00
Tyler Harney Rockford -1:20.10 16:40.70 18:00.80
Nick Whise St. Joseph -2:09.80 16:40.70 18:50.50
Matt Greve Dexter -41.90 16:41.40 17:23.30
Tyler Partridge Brighton -15.70 16:41.80 16:57.50
Schalk Vanniekerk Grand Haven -36.40 16:42.10 17:18.50
Eric Veldkamp Grand Rapids Christian -12.60 16:42.10 16:54.70
Connor Couch Pinckney -46.70 16:45.90 17:32.60
Brennan Shafer St. Clair -15.30 16:46.10 17:01.40
Austin Benoit Rockford -51.40 16:46.60 17:38.00
Josh D'haene DeWitt -58.00 16:47.50 17:45.50
Andre Otte Grand Rapids Christian -39.00 16:49.10 17:28.10
Joseph Beemer St. Joseph -38.90 16:50.00 17:28.90
Grant Cook Grand Rapids Forest Hills Northern +13.10 17:05.50 16:52.40
Nathan Vorwerck Bay City Western -50.30 16:52.80 17:43.10
Joe Wendorf Dexter -1:13.30 16:55.20 18:08.50
Brandon Winter Ionia -13.40 16:57.00 17:10.40
Jonah Laursen Traverse City West -23.40 16:57.10 17:20.50
Kieran Hall Traverse City West -56.20 17:00.80 17:57.00
Jeremy Simon Richland Gull Lake -28.00 17:01.80 17:29.80
Eric Evans Brighton -37.90 17:02.50 17:40.40
Jake Nye Temperance-Bedford -20.20 17:04.60 17:24.80
Zachary Ailes Holland Christian -35.10 17:05.60 17:40.70
Chris Wernette Brighton -31.90 17:05.80 17:37.70
Evan Hoekzema Grand Rapids Christian -1:31.60 17:05.80 18:37.40
Jonathan Coyne Grand Rapids Forest Hills Northern -1:33.80 17:05.90 18:39.70
Chris Guikema Grand Rapids South Christian -25.30 17:06.20 17:31.50
Charlend Howard Gaylord +1.90 17:09.50 17:07.60
Blake Wilson Battle Creek Lakeview -1:30.90 17:07.80 18:38.70
Nick Tarsa Traverse City Central -1:44.60 17:08.10 18:52.70
John Dood Grand Rapids Forest Hills Northern -2:51.70 17:08.40 20:00.10
Dallas Chase Richland Gull Lake -1:54.10 17:09.20 19:03.30
Michael Potter Grand Rapids South Christian -23.30 17:09.50 17:32.80
Nate Fischer Gaylord +8.70 17:18.60 17:09.90
Jake Holwerda Hudsonville -14.10 17:10.10 17:24.20
Andrew Pitcher Rockford -41.80 17:11.70 17:53.50
Chans Head Pinckney -13.60 17:14.10 17:27.70
Sam Sly Richland Gull Lake -1:25.00 17:15.70 18:40.70
Jack Stephan Grand Rapids Forest Hills Eastern -36.30 17:16.40 17:52.70
Ben Crane Temperance-Bedford -44.60 17:17.60 18:02.20
Nate Kimble DeWitt -1:17.40 17:18.50 18:35.90
Alec Sullivan Portage Northern -42.50 17:20.40 18:02.90
Graham Elliott Linden -2:14.50 17:22.80 19:37.30
Tyler Durussel Bay City Western +6.90 17:30.20 17:23.30
Anwar Munye East Kentwood -15.80 17:23.90 17:39.70
Derek Tulla Three Rivers -1:56.70 17:24.90 19:21.60
Tim Bougher Dexter -37.80 17:25.50 18:03.30
Adam Henry Grand Rapids Forest Hills Central +1:05.40 18:33.80 17:28.40
Patrick Miller Howell -1:28.60 17:28.70 18:57.30
Hunter Swogger Traverse City West +10.90 17:40.50 17:29.60
Logan Smith Temperance-Bedford -1:24.80 17:30.20 18:55.00
Craig Hedges Grand Rapids Forest Hills Northern -1:16.40 17:32.00 18:48.40
Julia Bos Grand Rapids Christian -1:07.70 17:32.50 18:40.20
Patrick Carrier Holt -33.50 17:34.50 18:08.00
Dylan Tarr Grand Haven -25.30 17:35.20 18:00.50
Grant Aman Rockford -1:06.80 17:35.30 18:42.10
Sean Hrecho St. Clair -53.30 17:36.10 18:29.40
Micah Warners Grand Rapids Christian -1:39.40 17:37.00 19:16.40
Conrad Schultz Brownstown Woodhaven -1:25.80 17:38.00 19:03.80
Ben Medina Pinckney +58.20 18:37.70 17:39.50
Zach Lemieux Linden -2:32.40 17:39.60 20:12.00
Randy Gottler St. Clair +22.80 18:03.00 17:40.20
Steve Crompton Grand Rapids Forest Hills Central +41.60 18:22.00 17:40.40
Blake Loudermilk Dexter -1:20.50 17:40.50 19:01.00
Davis Smith Pinckney -1:38.50 17:42.30 19:20.80
Andrew Pruim Grand Rapids Christian +18.70 18:01.70 17:43.00
Brady Durant Grand Haven -1:52.60 17:43.20 19:35.80
Alexander Karel Byron Center -51.00 17:44.10 18:35.10
Sean Hope Gaylord +52.90 18:37.30 17:44.40
Ben Greaves Portage Central -35.50 17:44.90 18:20.40
Taylor Manett Rockford -1:02.80 17:45.10 18:47.90
Adam Cichon East Kentwood -9.70 17:45.60 17:55.30
Grant Schlinz Allendale -1:02.10 17:46.10 18:48.20
Ian Callison Gaylord -10.10 17:46.20 17:56.30
Ben Wexler Temperance-Bedford +5.30 17:51.90 17:46.60
Cade Cronheim Hudsonville -42.30 17:51.60 18:33.90
Nate Busby Richland Gull Lake +12.30 18:04.60 17:52.30
Josh Kreslins Fremont -2:30.50 17:52.40 20:22.90
Landon Potts Grand Rapids South Christian -1:45.00 17:53.60 19:38.60
Jake Pasternak Gaylord -8.90 17:54.20 18:03.10
Derson Figuereo East Kentwood +6.80 18:01.50 17:54.70
Ethan Carigon Grand Rapids Forest Hills Eastern +10.20 18:06.40 17:56.20
Nate Knoth Hudsonville -1:03.30 17:56.40 18:59.70
Austin Elliott Spring Lake -20.70 17:57.30 18:18.00
Matthew Dippel East Kentwood +6.70 18:04.10 17:57.40
Zak Vruwink Hudsonville Unity Christian +1:08.40 19:06.10 17:57.70
Adrian Taylor Linden +30.40 18:29.20 17:58.80
Alexis Wiersma Allendale -2.60 17:58.90 18:01.50
Jake Rossman Caledonia +55.50 18:54.60 17:59.10
Shannon Grace Three Rivers -2:13.60 17:59.40 20:13.00
Connor Hague Culver Academies -28.20 18:00.30 18:28.50
Brandon Oswald Allendale +4.60 18:05.00 18:00.40
Andrew Gardner Vicksburg +28.20 18:29.40 18:01.20
Zach Stoner Portage Central -1:03.60 18:01.60 19:05.20
Kyle Susalla Linden -1:16.70 18:02.30 19:19.00
Tom Zahrt Richland Gull Lake -1:08.80 18:03.00 19:11.80
Jon Cernanec Grand Rapids Catholic Central -21.80 18:04.00 18:25.80
Kevin Bechtel Kalamazoo Loy Norrix +2.60 18:06.90 18:04.30
Kevin Caron Holt +44.00 18:51.60 18:07.60
Avery Evenson Hartland +0.20 18:09.10 18:08.90
Daniel Newhouse Vicksburg -16.50 18:08.90 18:25.40
Evan Harrison Grand Rapids Forest Hills Central -12.80 18:09.00 18:21.80
Luke Ellison Byron Center -59.50 18:09.60 19:09.10
Spencer Plattner Caledonia -31.80 18:10.60 18:42.40
Jake Tholen Howell -46.00 18:10.70 18:56.70
Chris Macgeorge Grand Rapids Catholic Central +32.20 18:43.30 18:11.10
Shawn Haddix Carleton Airport +2.40 18:14.30 18:11.90
Ben Heriford Grand Ledge -1:21.30 18:11.90 19:33.20
Mark Alvarado Remus Chippewa Hills -1:51.00 18:12.30 20:03.30
Everett Rawlings Holt +1:29.40 19:42.10 18:12.70
Charlie Miller Chelsea -1:54.20 18:13.50 20:07.70
David Vanderzee Grand Rapids Catholic Central -37.40 18:16.90 18:54.30
Kevin Phelps Portage Central -2:15.00 18:18.10 20:33.10
Johnny Ackley Traverse City Central -11.80 18:18.40 18:30.20
Ian Carter Wayland Union -1:09.80 18:21.30 19:31.10
Conner Koukios Grand Rapids Forest Hills Eastern +48.00 19:11.60 18:23.60
Tyler Green Fremont +41.80 19:05.90 18:24.10
Nick Dejong Allendale +2.70 18:27.80 18:25.10
Elizabeth Kingshott Brighton +1:01.90 19:27.80 18:25.90
Corey Vandecappelle Wayland Union -1:23.40 18:27.30 19:50.70
Tyler Sykes Grand Rapids Catholic Central -45.30 18:31.00 19:16.30
Nick Ellison Grant -29.60 18:31.80 19:01.40
Don Dennis Remus Chippewa Hills -1:46.50 18:33.10 20:19.60
Ryan Galligan Spring Lake -1:56.40 18:39.50 20:35.90
Justin Dykema Hudsonville Unity Christian +33.20 19:13.80 18:40.60
Taylor Klotz Hastings +1:04.50 19:47.00 18:42.50
Connor Galligan Spring Lake -48.80 18:43.80 19:32.60
Daniel Ludema Byron Center -1:24.10 18:44.50 20:08.60
Jane Hawks Rockford +34.30 19:20.30 18:46.00
Jessie Baloga East Grand Rapids +37.70 19:24.30 18:46.60
Patrick Donovan DeWitt -7:37.10 18:47.10 26:24.20
Adam Carter Wayland Union -34.80 18:49.00 19:23.80
Griffin Brandt Portage Northern -7.50 18:50.10 18:57.60
Dino Pereira Brownstown Woodhaven -1:45.20 18:51.30 20:36.50
Luke Gammon Byron Center -46.90 18:51.70 19:38.60
Tyler Bannhard Grand Ledge -16.80 18:52.10 19:08.90
Austin Vanlaar Caledonia -27.40 18:53.50 19:20.90
Ben Schimpf Battle Creek Lakeview +4.20 18:59.40 18:55.20
Joshua Weslock Howell +19.40 19:17.90 18:58.50
Colin Mclaughlin Grand Rapids Forest Hills Central -1:26.50 19:00.50 20:27.00
Mike Hoodlebrink Stevensville-Lakeshore -16.20 19:00.80 19:17.00
Jacob Schacht Mattawan -41.90 19:01.40 19:43.30
Chad Malinowski Grand Rapids Forest Hills Eastern -44.90 19:04.10 19:49.00
Trent Witte Hudsonville Unity Christian -15.30 19:05.90 19:21.20
Spencer Miller Grand Rapids Forest Hills Eastern +17.50 19:25.30 19:07.80
Brandon Parsons Edwardsburg +2:01.10 21:11.70 19:10.60
Jeremy Koschay Grand Ledge -2:10.50 19:10.80 21:21.30
Brianna Kalisz Marshall +1:24.80 20:36.00 19:11.20
Amy Creutz Saline -48.20 19:13.10 20:01.30
Andrea Cerullo Pinckney +1:18.50 20:36.40 19:17.90
Peter Colquhoun Battle Creek Lakeview +9.40 19:27.30 19:17.90
Kassidy Clark East Grand Rapids -1:05.00 19:18.70 20:23.70
Sammy Mondry Grandville -2:19.60 19:19.20 21:38.80
Marcy Marek Traverse City West +1:02.30 20:21.60 19:19.30
Tony Vandyke Hudsonville Unity Christian -10.10 19:20.10 19:30.20
Miranda Haas Pinckney -35.80 19:22.00 19:57.80
Josh Kooistra Grant -37.50 19:22.10 19:59.60
Dean Strawsine Brownstown Woodhaven +19.10 19:41.80 19:22.70
Nathan Vance Holland Christian -3:08.50 19:22.70 22:31.20
Alyssa Cummings Saline -13.90 19:22.80 19:36.70
Clara Cullen Grand Rapids Forest Hills Eastern -45.60 19:25.20 20:10.80
Matt Zenner Traverse City West +17.30 19:43.30 19:26.00
Joshua Hill Jenison -24.60 19:30.40 19:55.00
Rachael Favela Traverse City West -33.40 19:31.30 20:04.70
Catherine Keegin Grand Haven +36.20 20:08.20 19:32.00
Allison Vanpatten Grand Rapids Kenowa Hills +2:06.50 21:39.80 19:33.30
Paige Mckeon Okemos +2:51.70 22:27.50 19:35.80
Megan Sanchez Hudsonville +35.80 20:15.20 19:39.40
Hannah Schroder Caledonia -1:22.80 19:39.60 21:02.40
David Hendley Stevensville-Lakeshore -2.90 19:40.60 19:43.50
Phillip Zauel Howell -58.10 19:40.80 20:38.90
Annie Bartkowski Okemos +2:00.50 21:42.80 19:42.30
Claudia Vredeveld Grand Rapids Forest Hills Northern -25.40 19:43.00 20:08.40
Joey Galea Brownstown Woodhaven -12.30 19:43.20 19:55.50
Matthew Devree Jenison -2:25.40 19:45.50 22:10.90
Anne Redd Temperance-Bedford -50.50 19:55.90 20:46.40
Brooke Spruit Grand Haven -1:44.10 20:00.40 21:44.50
Grace Carver South Haven +7.00 20:08.00 20:01.00
Kayla Balfour St. Clair -9.50 20:02.40 20:11.90
Angela Ottenwess Grand Rapids Forest Hills Eastern -1:15.60 20:03.30 21:18.90
Raychel Figurski Grandville +32.30 20:40.60 20:08.30
Halle Billinghurst Spring Lake +1:05.30 21:16.10 20:10.80
Kayla Hanses DeWitt -41.90 20:14.00 20:55.90
Julia Berends Hudsonville -2:03.80 20:15.60 22:19.40
Lauren Bules Temperance-Bedford -1:20.80 20:16.80 21:37.60
Jessica D'haene DeWitt -45.80 20:16.80 21:02.60
Lindsay Macmillan Mattawan +38.50 20:58.30 20:19.80
Rachel Bendewald St. Joseph +25.30 20:46.40 20:21.10
Rademacher Lauren DeWitt -57.40 20:22.80 21:20.20
Alex Belinky Carleton Airport -2:12.70 20:23.60 22:36.30
Nate Sell Three Rivers -27.50 20:24.70 20:52.20
Susan Hoffman East Grand Rapids -1:00.80 20:28.20 21:29.00
Megan Borgeson Gaylord +1:11.00 21:39.50 20:28.50
Danielle Melgar Portage Northern +39.20 21:08.30 20:29.10
Kourtney Osentoski Temperance-Bedford -19.10 20:33.00 20:52.10
Dani Kinczkowski Pinckney +41.40 21:19.50 20:38.10
Ben Peak Edwardsburg -59.00 20:39.30 21:38.30
Lydia Bumann Brighton -3.80 20:40.90 20:44.70
Kristy Behmlander Bay City Western +37.90 21:20.50 20:42.60
Carlie Snoap Grandville -1.60 20:44.40 20:46.00
Sorensen Katie Portage Northern +1:22.90 22:08.70 20:45.80
Tasha Schnyders Hudsonville Unity Christian +5:04.90 25:53.30 20:48.40
Lauren Zens St. Clair -59.20 20:49.80 21:49.00
Leah Coonrod Richland Gull Lake -1:11.70 20:52.30 22:04.00
Tate Miller Hastings -35.00 20:52.70 21:27.70
Katelynn Dreyer Gaylord -0.80 20:53.40 20:54.20
Karrah Varner Linden +1:03.40 21:57.30 20:53.90
Clancey Hawke Traverse City West -43.10 20:55.00 21:38.10
Chloe Rick Temperance-Bedford -42.60 20:56.80 21:39.40
Kayla Crawford Muskegon -22.10 20:59.50 21:21.60
Alina Prusko East Kentwood +3:06.00 24:07.00 21:01.00
Megan Skinner Hartland +36.20 21:37.30 21:01.10
Lindsey Boes Holland Christian +54.30 21:56.30 21:02.00
Roxanne Raven Okemos +4.90 21:07.10 21:02.20
Geena Duff Gaylord -4.40 21:03.60 21:08.00
Krista Brandel Muskegon +2:30.10 23:34.70 21:04.60
Sawyer Rocheleau Rockford +22.80 21:33.00 21:10.20
Melanie Fox Grand Rapids Christian -28.30 21:10.50 21:38.80
Allison Mcginn Hartland +45.90 21:58.90 21:13.00
Chandra Swiech Jenison +2:25.00 23:44.40 21:19.40
Melanie Armstrong Stevensville-Lakeshore +1:58.00 23:18.00 21:20.00
Jessica Mulder Holland Christian +6.20 21:28.80 21:22.60
Claire Schaar Fremont -1:19.20 21:24.70 22:43.90
Jade Hubbard Kalamazoo Loy Norrix +37.50 22:02.80 21:25.30
Anna Farrell Mattawan +47.50 22:16.10 21:28.60
Paige Hypio Gaylord +34.70 22:09.30 21:34.60
Jane Clinger Grand Rapids Forest Hills Central -26.10 21:36.20 22:02.30
Rebecca Bisson Grant +1:10.20 22:47.70 21:37.50
Autumn Baker Holt -20.80 21:40.00 22:00.80
Duna Buttner Wayland Union +1:40.70 23:21.00 21:40.30
Maria Warren Gaylord -23.10 21:41.20 22:04.30
Rebecca Wilkin Howell +2:03.30 23:44.70 21:41.40
Noelle Warren Gaylord +2:02.10 23:43.60 21:41.50
Teri Laforest St. Joseph +12.90 21:55.30 21:42.40
Jennifer Dowsett St. Joseph +1:48.00 23:35.50 21:47.50
Rachael Armstrong Stevensville-Lakeshore +1:22.30 23:10.10 21:47.80
Kelsey Dorgan Mattawan +26.50 22:15.90 21:49.40
Katie Gawor Culver Academies +2.40 21:52.20 21:49.80
Maaike Mudde Grand Rapids Christian -1:14.10 21:49.90 23:04.00
Meg Travis Hastings +14.20 22:08.00 21:53.80
Sarah Lelli Howell -28.30 21:57.30 22:25.60
Kelsey Lancina Carleton Airport -1:42.90 22:00.10 23:43.00
Tevy Wheatley Marshall -39.80 22:00.50 22:40.30
Elise Vanderweele Grand Rapids South Christian +22.10 22:24.90 22:02.80
Heidi Dayton Hudsonville -1.40 22:03.50 22:04.90
Cassedi Vrbensky Remus Chippewa Hills +4:56.70 27:00.50 22:03.80
Larissa Umbleby Remus Chippewa Hills +1:06.50 23:10.60 22:04.10
Amanda Becker Holt -18.10 22:05.80 22:23.90
Jessica Sutherland Pinckney +2:13.30 24:24.20 22:10.90
Kristian Johnson South Haven -2:53.10 22:14.10 25:07.20
Megan Versen Grand Rapids Kenowa Hills +1:40.20 23:55.80 22:15.60
Nicole Wehner Gaylord +4.00 22:23.30 22:19.30
Sarah Benedict Portage Central -1:02.20 22:23.00 23:25.20
Kate Lubben Holland Christian -1:24.50 22:31.80 23:56.30
Samantha Schwartz St. Clair -1:16.10 22:36.70 23:52.80
Brooke Keller Vicksburg -23.60 22:37.80 23:01.40
Danae Dow Marshall -3.60 22:45.10 22:48.70
Morgan King Mattawan -59.40 22:45.50 23:44.90
Hannah Schnack Traverse City West -2:06.20 22:45.70 24:51.90
Brittany Swejkoski Holt -1:37.40 22:52.40 24:29.80
Jon Snow Kalamazoo Loy Norrix +6.30 23:03.10 22:56.80
Meghan Wilson Grand Rapids Catholic Central +1:04.80 24:12.80 23:08.00
Lauren Niergarth Allendale +12.00 23:38.50 23:26.50
Hollie Lewis Vicksburg -15.10 23:27.50 23:42.60
Katie Friske Byron Center +3:28.10 27:01.60 23:33.50
Heidi Schreur Holland Christian -35.10 23:43.40 24:18.50
Clare Lambert Grand Rapids Catholic Central +39.10 24:29.40 23:50.30
Zoe Vandyke Hudsonville Unity Christian +59.70 24:50.70 23:51.00
Lauren Raap Wayland Union -40.50 23:53.50 24:34.00
Karli Kutsch Howell +3:20.30 27:15.60 23:55.30
Kilee Debrabander Marshall +2:11.00 26:22.50 24:11.50
Miranda Bronicki Edwardsburg -7.60 24:13.00 24:20.60
Elisa Yonge Three Rivers -2.40 24:38.70 24:41.10
Alexa Kinnison Kalamazoo Loy Norrix -1:47.10 24:43.60 26:30.70
Keana Ehrich Hudsonville Unity Christian +2:42.80 27:56.90 25:14.10